Time,TemperatureF,DewpointF,PressureIn,WindDirection,WindDirectionDegrees,WindSpeedMPH,WindSpeedGustMPH,Humidity,HourlyPrecipIn,Conditions,Clouds,dailyrainin,SoftwareType,DateUTC
2013-08-04 00:01:00,83.6,76.0,30.08,West,272,0.0,0.0,78,0.00,,,0.00,WeatherCatV1.15B25,2013-08-04 04:01:00,
2013-08-04 00:06:00,83.5,75.9,30.08,West,281,4.0,4.0,78,0.00,,,0.00,WeatherCatV1.15B25,2013-08-04 04:06:00,
2013-08-04 00:11:00,83.5,75.9,30.09,West,260,0.0,5.0,78,0.00,,,0.00,WeatherCatV1.15B25,2013-08-04 04:11:00,
2013-08-04 00:16:00,83.4,75.8,30.08,WSW,252,0.0,1.0,78,0.00,,,0.00,WeatherCatV1.15B25,2013-08-04 04:16:00,
2013-08-04 00:21:00,83.4,75.8,30.08,West,277,0.0,1.0,78,0.00,,,0.00,WeatherCatV1.15B25,2013-08-04 04:21:00,
2013-08-04 00:26:00,83.4,75.8,30.08,WNW,285,1.0,4.0,78,0.00,,,0.00,WeatherCatV1.15B25,2013-08-04 04:26:00,
2013-08-04 00:31:00,83.3,75.7,30.08,WNW,284,0.0,1.0,78,0.00,,,0.00,WeatherCatV1.15B25,2013-08-04 04:31:00,
2013-08-04 00:36:00,83.3,76.1,30.08,West,269,0.0,1.0,79,0.00,,,0.00,WeatherCatV1.15B25,2013-08-04 04:36:00,
2013-08-04 00:41:00,83.3,76.1,30.08,West,280,0.0,5.0,79,0.00,,,0.00,WeatherCatV1.15B25,2013-08-04 04:41:00,
2013-08-04 00:46:00,83.3,76.1,30.08,WNW,283,0.0,2.0,79,0.00,,,0.00,WeatherCatV1.15B25,2013-08-04 04:46:00,
2013-08-04 00:51:00,83.3,76.1,30.08,West,276,0.0,2.0,79,0.00,,,0.00,WeatherCatV1.15B25,2013-08-04 04:51:00,
2013-08-04 00:56:00,83.3,76.1,30.08,WSW,244,2.0,7.0,79,0.00,,,0.00,WeatherCatV1.15B25,2013-08-04 04:56:00,
2013-08-04 01:01:00,83.3,76.5,30.08,WNW,284,0.0,5.0,80,0.00,,,0.00,WeatherCatV1.15B25,2013-08-04 05:01:00,
2013-08-04 01:06:00,83.3,76.5,30.08,WNW,301,2.0,3.0,80,0.00,,,0.00,WeatherCatV1.15B25,2013-08-04 05:06:00,
2013-08-04 01:11:00,83.3,76.5,30.08,NW,304,0.0,4.0,80,0.00,,,0.00,WeatherCatV1.15B25,2013-08-04 05:11:00,
2013-08-04 01:16:00,83.2,76.4,30.08,NW,304,0.0,1.0,80,0.00,,,0.00,WeatherCatV1.15B25,2013-08-04 05:16:00,
2013-08-04 01:21:00,83.2,76.4,30.08,NW,304,0.0,0.0,80,0.00,,,0.00,WeatherCatV1.15B25,2013-08-04 05:21:00,
2013-08-04 01:26:00,83.0,76.2,30.08,NW,304,0.0,0.0,80,0.00,,,0.00,WeatherCatV1.15B25,2013-08-04 05:26:00,
2013-08-04 01:31:00,82.9,76.1,30.08,NW,304,0.0,0.0,80,0.00,,,0.00,WeatherCatV1.15B25,2013-08-04 05:31:00,
2013-08-04 01:36:00,82.7,75.9,30.07,WNW,286,0.0,2.0,80,0.00,,,0.00,WeatherCatV1.15B25,2013-08-04 05:36:00,
2013-08-04 01:41:00,82.5,75.7,30.07,WNW,286,0.0,2.0,80,0.00,,,0.00,WeatherCatV1.15B25,2013-08-04 05:41:00,
2013-08-04 01:46:00,82.4,75.6,30.07,West,275,0.0,2.0,80,0.00,,,0.00,WeatherCatV1.15B25,2013-08-04 05:46:00,
2013-08-04 01:51:00,82.4,75.6,30.07,SW,226,0.0,1.0,80,0.00,,,0.00,WeatherCatV1.15B25,2013-08-04 05:51:00,
2013-08-04 01:56:00,82.4,75.6,30.07,SW,226,0.0,1.0,80,0.00,,,0.00,WeatherCatV1.15B25,2013-08-04 05:56:00,
2013-08-04 02:01:00,82.5,75.7,30.07,West,261,0.0,1.0,80,0.00,,,0.00,WeatherCatV1.15B25,2013-08-04 06:01:00,
2013-08-04 02:06:00,82.5,75.7,30.06,WSW,252,0.0,2.0,80,0.00,,,0.00,WeatherCatV1.15B25,2013-08-04 06:06:00,
2013-08-04 02:11:00,82.5,75.7,30.06,SW,231,0.0,2.0,80,0.00,,,0.00,WeatherCatV1.15B25,2013-08-04 06:11:00,
2013-08-04 02:16:00,82.6,75.8,30.06,WSW,254,0.0,1.0,80,0.00,,,0.00,WeatherCatV1.15B25,2013-08-04 06:16:00,
2013-08-04 02:21:00,82.6,75.8,30.06,West,261,0.0,2.0,80,0.00,,,0.00,WeatherCatV1.15B25,2013-08-04 06:21:00,
2013-08-04 02:26:00,82.7,75.9,30.05,West,259,0.0,2.0,80,0.00,,,0.00,WeatherCatV1.15B25,2013-08-04 06:26:00,
2013-08-04 02:32:00,82.7,75.9,30.05,WNW,293,0.0,4.0,80,0.00,,,0.00,WeatherCatV1.15B25,2013-08-04 06:32:00,
2013-08-04 02:37:00,82.7,75.9,30.05,WSW,240,5.0,5.0,80,0.00,,,0.00,WeatherCatV1.15B25,2013-08-04 06:37:00,
2013-08-04 02:42:00,82.8,76.4,30.05,West,269,3.0,5.0,81,0.00,,,0.00,WeatherCatV1.15B25,2013-08-04 06:42:00,
2013-08-04 02:47:00,82.8,76.0,30.05,West,265,2.0,6.0,80,0.00,,,0.00,WeatherCatV1.15B25,2013-08-04 06:47:00,
2013-08-04 02:52:00,82.7,75.9,30.04,WNW,285,1.0,5.0,80,0.00,,,0.00,WeatherCatV1.15B25,2013-08-04 06:52:00,
2013-08-04 02:57:00,82.7,75.9,30.04,West,281,2.0,4.0,80,0.00,,,0.00,WeatherCatV1.15B25,2013-08-04 06:57:00,
2013-08-04 03:02:00,82.6,75.8,30.04,West,262,0.0,2.0,80,0.00,,,0.00,WeatherCatV1.15B25,2013-08-04 07:02:00,
2013-08-04 03:07:00,82.5,75.7,30.04,West,260,0.0,0.0,80,0.00,,,0.00,WeatherCatV1.15B25,2013-08-04 07:07:00,
2013-08-04 03:12:00,82.4,76.0,30.04,WNW,288,0.0,0.0,81,0.00,,,0.00,WeatherCatV1.15B25,2013-08-04 07:12:00,
2013-08-04 03:17:00,82.3,75.9,30.03,West,278,0.0,0.0,81,0.00,,,0.00,WeatherCatV1.15B25,2013-08-04 07:17:00,
2013-08-04 03:19:00,82.3,75.9,30.03,West,278,0.0,0.0,81,0.00,,,0.00,WeatherCatV1.15B25,2013-08-04 07:19:00,
2013-08-04 03:24:00,82.2,76.1,30.04,WNW,286,0.0,0.0,82,0.00,,,0.00,WeatherCatV1.15B25,2013-08-04 07:24:00,
2013-08-04 03:29:00,82.2,76.1,30.04,West,281,0.0,0.0,82,0.00,,,0.00,WeatherCatV1.15B25,2013-08-04 07:29:00,
2013-08-04 03:34:00,82.1,76.0,30.03,West,276,0.0,0.0,82,0.00,,,0.00,WeatherCatV1.15B25,2013-08-04 07:34:00,
2013-08-04 03:39:00,82.0,75.6,30.03,West,279,0.0,2.0,81,0.00,,,0.00,WeatherCatV1.15B25,2013-08-04 07:39:00,
2013-08-04 03:44:00,82.0,75.6,30.03,West,267,1.0,1.0,81,0.00,,,0.00,WeatherCatV1.15B25,2013-08-04 07:44:00,
2013-08-04 03:49:00,81.9,75.5,30.03,WSW,252,0.0,4.0,81,0.00,,,0.00,WeatherCatV1.15B25,2013-08-04 07:49:00,
2013-08-04 03:54:00,81.9,75.5,30.03,WSW,245,0.0,1.0,81,0.00,,,0.00,WeatherCatV1.15B25,2013-08-04 07:54:00,
2013-08-04 03:59:00,81.8,75.4,30.03,WSW,242,0.0,2.0,81,0.00,,,0.00,WeatherCatV1.15B25,2013-08-04 07:59:00,
2013-08-04 04:04:00,81.8,75.4,30.03,West,266,0.0,1.0,81,0.00,,,0.00,WeatherCatV1.15B25,2013-08-04 08:04:00,
2013-08-04 04:09:00,81.8,75.4,30.03,West,267,3.0,3.0,81,0.00,,,0.00,WeatherCatV1.15B25,2013-08-04 08:09:00,
2013-08-04 04:14:00,81.7,75.3,30.03,West,267,0.0,1.0,81,0.00,,,0.00,WeatherCatV1.15B25,2013-08-04 08:14:00,
2013-08-04 04:19:00,81.7,75.7,30.03,West,267,0.0,1.0,82,0.00,,,0.00,WeatherCatV1.15B25,2013-08-04 08:19:00,
2013-08-04 04:24:00,81.7,75.7,30.03,West,267,0.0,0.0,82,0.00,,,0.00,WeatherCatV1.15B25,2013-08-04 08:24:00,
2013-08-04 04:29:00,81.6,75.6,30.03,West,263,0.0,2.0,82,0.00,,,0.00,WeatherCatV1.15B25,2013-08-04 08:29:00,
2013-08-04 04:34:00,81.6,75.6,30.03,West,266,0.0,0.0,82,0.00,,,0.00,WeatherCatV1.15B25,2013-08-04 08:34:00,
2013-08-04 04:39:00,81.5,75.1,30.03,West,266,0.0,0.0,81,0.00,,,0.00,WeatherCatV1.15B25,2013-08-04 08:39:00,
2013-08-04 04:44:00,81.5,75.1,30.03,West,267,0.0,2.0,81,0.00,,,0.00,WeatherCatV1.15B25,2013-08-04 08:44:00,
2013-08-04 04:49:00,81.5,75.1,30.03,West,267,0.0,0.0,81,0.00,,,0.00,WeatherCatV1.15B25,2013-08-04 08:49:00,
2013-08-04 04:54:00,81.4,75.0,30.03,West,260,0.0,2.0,81,0.00,,,0.00,WeatherCatV1.15B25,2013-08-04 08:54:00,
2013-08-04 04:59:00,81.4,75.0,30.03,West,260,0.0,0.0,81,0.00,,,0.00,WeatherCatV1.15B25,2013-08-04 08:59:00,
2013-08-04 05:04:00,81.4,75.0,30.03,West,260,0.0,0.0,81,0.00,,,0.00,WeatherCatV1.15B25,2013-08-04 09:04:00,
2013-08-04 05:09:00,81.3,75.3,30.03,West,260,0.0,1.0,82,0.00,,,0.00,WeatherCatV1.15B25,2013-08-04 09:09:00,
2013-08-04 05:14:00,81.2,75.2,30.03,West,260,0.0,0.0,82,0.00,,,0.00,WeatherCatV1.15B25,2013-08-04 09:14:00,
2013-08-04 05:19:00,81.2,75.2,30.03,West,260,0.0,0.0,82,0.00,,,0.00,WeatherCatV1.15B25,2013-08-04 09:19:00,
2013-08-04 05:24:00,81.2,75.2,30.03,West,260,1.0,1.0,82,0.00,,,0.00,WeatherCatV1.15B25,2013-08-04 09:24:00,
2013-08-04 05:29:00,81.2,75.2,30.03,West,260,0.0,0.0,82,0.00,,,0.00,WeatherCatV1.15B25,2013-08-04 09:29:00,
2013-08-04 05:34:00,81.1,75.1,30.03,West,260,0.0,0.0,82,0.00,,,0.00,WeatherCatV1.15B25,2013-08-04 09:34:00,
2013-08-04 05:39:00,81.1,75.4,30.03,West,260,0.0,0.0,83,0.00,,,0.00,WeatherCatV1.15B25,2013-08-04 09:39:00,
2013-08-04 05:44:00,81.1,75.4,30.03,West,260,0.0,0.0,83,0.00,,,0.00,WeatherCatV1.15B25,2013-08-04 09:44:00,
2013-08-04 05:49:00,81.0,75.3,30.03,West,260,0.0,0.0,83,0.00,,,0.00,WeatherCatV1.15B25,2013-08-04 09:49:00,
2013-08-04 05:54:00,81.0,75.3,30.03,West,260,0.0,0.0,83,0.00,,,0.00,WeatherCatV1.15B25,2013-08-04 09:54:00,
2013-08-04 05:59:00,80.9,75.6,30.03,West,260,0.0,0.0,84,0.00,,,0.00,WeatherCatV1.15B25,2013-08-04 09:59:00,
2013-08-04 06:04:00,80.8,75.9,30.03,West,260,0.0,0.0,85,0.00,,,0.00,WeatherCatV1.15B25,2013-08-04 10:04:00,
2013-08-04 06:09:00,80.7,75.8,30.03,West,260,0.0,0.0,85,0.00,,,0.00,WeatherCatV1.15B25,2013-08-04 10:09:00,
2013-08-04 06:14:00,80.5,75.9,30.03,NNW,333,0.0,1.0,86,0.00,,,0.00,WeatherCatV1.15B25,2013-08-04 10:14:00,
2013-08-04 06:19:00,80.3,75.7,30.03,NNW,333,0.0,0.0,86,0.00,,,0.00,WeatherCatV1.15B25,2013-08-04 10:19:00,
2013-08-04 06:24:00,80.1,75.5,30.04,WNW,290,1.0,4.0,86,0.00,,,0.00,WeatherCatV1.15B25,2013-08-04 10:24:00,
2013-08-04 06:29:00,80.1,75.9,30.04,WNW,290,0.0,0.0,87,0.00,,,0.01,WeatherCatV1.15B25,2013-08-04 10:29:00,
2013-08-04 06:34:00,79.9,75.7,30.04,WNW,290,0.0,0.0,87,0.00,,,0.01,WeatherCatV1.15B25,2013-08-04 10:34:00,
2013-08-04 06:39:00,79.8,75.9,30.04,WNW,290,0.0,0.0,88,0.00,,,0.01,WeatherCatV1.15B25,2013-08-04 10:39:00,
2013-08-04 06:44:00,79.6,75.7,30.04,WNW,290,0.0,0.0,88,0.00,,,0.01,WeatherCatV1.15B25,2013-08-04 10:44:00,
2013-08-04 06:49:00,79.4,75.5,30.04,WNW,290,0.0,0.0,88,0.00,,,0.01,WeatherCatV1.15B25,2013-08-04 10:49:00,
2013-08-04 06:54:00,79.3,75.8,30.05,WNW,290,0.0,0.0,89,0.00,,,0.01,WeatherCatV1.15B25,2013-08-04 10:54:00,
2013-08-04 06:59:00,79.2,75.7,30.05,WNW,290,0.0,0.0,89,0.00,,,0.01,WeatherCatV1.15B25,2013-08-04 10:59:00,
2013-08-04 07:04:00,79.0,75.8,30.05,WNW,290,0.0,0.0,90,0.00,,,0.01,WeatherCatV1.15B25,2013-08-04 11:04:00,
2013-08-04 07:09:00,78.9,75.7,30.05,WNW,290,0.0,0.0,90,0.00,,,0.01,WeatherCatV1.15B25,2013-08-04 11:09:00,
2013-08-04 07:14:00,78.8,75.6,30.05,NW,311,0.0,0.0,90,0.00,,,0.01,WeatherCatV1.15B25,2013-08-04 11:14:00,
2013-08-04 07:19:00,78.7,75.5,30.05,NW,311,0.0,0.0,90,0.00,,,0.01,WeatherCatV1.15B25,2013-08-04 11:19:00,
2013-08-04 07:24:00,78.7,75.8,30.05,NW,311,0.0,0.0,91,0.00,,,0.01,WeatherCatV1.15B25,2013-08-04 11:24:00,
2013-08-04 07:29:00,78.8,75.9,30.05,NW,311,0.0,0.0,91,0.00,,,0.01,WeatherCatV1.15B25,2013-08-04 11:29:00,
2013-08-04 07:34:00,79.1,76.6,30.05,NW,311,0.0,0.0,92,0.00,,,0.01,WeatherCatV1.15B25,2013-08-04 11:34:00,
2013-08-04 07:39:00,79.6,77.1,30.06,NW,311,0.0,0.0,92,0.00,,,0.01,WeatherCatV1.15B25,2013-08-04 11:39:00,
2013-08-04 07:44:00,80.1,77.6,30.06,NW,311,0.0,0.0,92,0.00,,,0.01,WeatherCatV1.15B25,2013-08-04 11:44:00,
2013-08-04 07:49:00,80.7,77.5,30.06,NW,311,0.0,0.0,90,0.00,,,0.01,WeatherCatV1.15B25,2013-08-04 11:49:00,
2013-08-04 07:54:00,81.4,77.8,30.06,NW,311,0.0,0.0,89,0.00,,,0.01,WeatherCatV1.15B25,2013-08-04 11:54:00,
2013-08-04 07:59:00,82.2,77.9,30.06,NW,311,0.0,0.0,87,0.00,,,0.01,WeatherCatV1.15B25,2013-08-04 11:59:00,
2013-08-04 08:04:00,83.1,78.1,30.06,NW,311,0.0,0.0,85,0.00,,,0.01,WeatherCatV1.15B25,2013-08-04 12:04:00,
2013-08-04 08:09:00,83.9,78.2,30.07,NW,311,0.0,2.0,83,0.00,,,0.01,WeatherCatV1.15B25,2013-08-04 12:09:00,
2013-08-04 08:14:00,84.7,78.9,30.07,NW,311,0.0,1.0,83,0.00,,,0.01,WeatherCatV1.15B25,2013-08-04 12:14:00,
2013-08-04 08:19:00,85.5,78.6,30.07,NW,307,5.0,6.0,80,0.00,,,0.01,WeatherCatV1.15B25,2013-08-04 12:19:00,
2013-08-04 08:24:00,85.8,78.5,30.07,WNW,292,0.0,2.0,79,0.00,,,0.01,WeatherCatV1.15B25,2013-08-04 12:24:00,
2013-08-04 08:28:00,86.0,78.7,30.07,WNW,292,0.0,2.0,79,0.00,,,0.01,WeatherCatV1.15B25,2013-08-04 12:28:00,
2013-08-04 08:33:00,86.3,78.6,30.07,WNW,292,1.0,2.0,78,0.00,,,0.01,WeatherCatV1.15B25,2013-08-04 12:33:00,
2013-08-04 08:38:00,86.6,78.9,30.07,WNW,292,0.0,3.0,78,0.00,,,0.01,WeatherCatV1.15B25,2013-08-04 12:38:00,
2013-08-04 08:43:00,87.0,78.9,30.07,WNW,292,0.0,3.0,77,0.00,,,0.01,WeatherCatV1.15B25,2013-08-04 12:43:00,
2013-08-04 08:48:00,87.2,78.3,30.07,WSW,251,1.0,2.0,75,0.00,,,0.01,WeatherCatV1.15B25,2013-08-04 12:48:00,
2013-08-04 08:53:00,87.4,78.9,30.07,WNW,290,0.0,1.0,76,0.00,,,0.01,WeatherCatV1.15B25,2013-08-04 12:53:00,
2013-08-04 08:58:00,87.7,78.8,30.07,SW,230,0.0,4.0,75,0.00,,,0.01,WeatherCatV1.15B25,2013-08-04 12:58:00,
2013-08-04 09:03:00,88.2,78.8,30.07,WNW,286,3.0,3.0,74,0.00,,,0.01,WeatherCatV1.15B25,2013-08-04 13:03:00,
2013-08-04 09:08:00,88.7,79.7,30.07,SW,236,2.0,4.0,75,0.00,,,0.01,WeatherCatV1.15B25,2013-08-04 13:08:00,
2013-08-04 09:13:00,88.9,78.7,30.07,West,278,2.0,6.0,72,0.00,,,0.01,WeatherCatV1.15B25,2013-08-04 13:13:00,
2013-08-04 09:18:00,88.9,78.7,30.07,West,271,0.0,2.0,72,0.00,,,0.01,WeatherCatV1.15B25,2013-08-04 13:18:00,
2013-08-04 09:23:00,88.6,78.4,30.07,WSW,250,0.0,2.0,72,0.00,,,0.01,WeatherCatV1.15B25,2013-08-04 13:23:00,
2013-08-04 09:28:00,88.3,78.5,30.07,West,261,0.0,1.0,73,0.00,,,0.01,WeatherCatV1.15B25,2013-08-04 13:28:00,
2013-08-04 09:33:00,88.1,78.3,30.07,SW,236,0.0,1.0,73,0.00,,,0.01,WeatherCatV1.15B25,2013-08-04 13:33:00,
2013-08-04 09:38:00,87.8,78.4,30.07,WNW,289,2.0,3.0,74,0.00,,,0.01,WeatherCatV1.15B25,2013-08-04 13:38:00,
2013-08-04 09:43:00,88.0,79.1,30.07,SW,224,0.0,1.0,75,0.00,,,0.01,WeatherCatV1.15B25,2013-08-04 13:43:00,
2013-08-04 09:48:00,88.6,78.8,30.07,SW,234,2.0,7.0,73,0.00,,,0.01,WeatherCatV1.15B25,2013-08-04 13:48:00,
2013-08-04 09:53:00,89.2,79.4,30.07,WSW,250,1.0,4.0,73,0.00,,,0.01,WeatherCatV1.15B25,2013-08-04 13:53:00,
2013-08-04 09:58:00,89.6,78.9,30.07,West,274,7.0,7.0,71,0.00,,,0.01,WeatherCatV1.15B25,2013-08-04 13:58:00,
2013-08-04 10:03:00,90.0,80.1,30.07,WNW,290,5.0,9.0,73,0.00,,,0.01,WeatherCatV1.15B25,2013-08-04 14:03:00,
2013-08-04 10:08:00,89.9,79.2,30.07,WNW,292,1.0,8.0,71,0.00,,,0.01,WeatherCatV1.15B25,2013-08-04 14:08:00,
2013-08-04 10:13:00,89.3,79.1,30.07,WNW,289,2.0,5.0,72,0.00,,,0.01,WeatherCatV1.15B25,2013-08-04 14:13:00,
2013-08-04 10:18:00,88.9,79.1,30.07,West,267,0.0,4.0,73,0.00,,,0.01,WeatherCatV1.15B25,2013-08-04 14:18:00,
2013-08-04 10:23:00,89.1,79.7,30.07,WNW,292,5.0,9.0,74,0.00,,,0.01,WeatherCatV1.15B25,2013-08-04 14:23:00,
2013-08-04 10:28:00,89.5,80.1,30.07,West,269,0.0,6.0,74,0.00,,,0.01,WeatherCatV1.15B25,2013-08-04 14:28:00,
2013-08-04 10:33:00,89.6,79.3,30.08,WNW,285,4.0,6.0,72,0.00,,,0.01,WeatherCatV1.15B25,2013-08-04 14:33:00,
2013-08-04 10:38:00,89.7,79.9,30.07,West,272,0.0,1.0,73,0.00,,,0.01,WeatherCatV1.15B25,2013-08-04 14:38:00,
2013-08-04 10:43:00,90.0,79.7,30.08,West,274,1.0,5.0,72,0.00,,,0.01,WeatherCatV1.15B25,2013-08-04 14:43:00,
2013-08-04 10:48:00,89.9,78.8,30.08,West,275,3.0,4.0,70,0.00,,,0.01,WeatherCatV1.15B25,2013-08-04 14:48:00,
2013-08-04 10:53:00,90.2,79.5,30.08,WSW,254,1.0,5.0,71,0.00,,,0.01,WeatherCatV1.15B25,2013-08-04 14:53:00,
2013-08-04 10:58:00,90.7,80.0,30.08,WNW,292,4.0,5.0,71,0.00,,,0.01,WeatherCatV1.15B25,2013-08-04 14:58:00,
2013-08-04 11:03:00,90.4,78.8,30.08,WNW,294,0.0,2.0,69,0.00,,,0.01,WeatherCatV1.15B25,2013-08-04 15:03:00,
2013-08-04 11:08:00,90.6,79.0,30.08,SSW,209,6.0,6.0,69,0.00,,,0.01,WeatherCatV1.15B25,2013-08-04 15:08:00,
2013-08-04 11:13:00,91.2,79.1,30.08,SSE,155,0.0,9.0,68,0.00,,,0.01,WeatherCatV1.15B25,2013-08-04 15:13:00,
2013-08-04 11:18:00,90.9,78.4,30.08,SSE,165,1.0,2.0,67,0.00,,,0.01,WeatherCatV1.15B25,2013-08-04 15:18:00,
2013-08-04 11:23:00,90.2,77.7,30.08,SSW,196,1.0,1.0,67,0.00,,,0.01,WeatherCatV1.15B25,2013-08-04 15:23:00,
2013-08-04 11:28:00,89.9,78.3,30.08,WSW,246,0.0,2.0,69,0.00,,,0.01,WeatherCatV1.15B25,2013-08-04 15:28:00,
2013-08-04 11:33:00,89.5,77.9,30.08,West,260,1.0,5.0,69,0.00,,,0.01,WeatherCatV1.15B25,2013-08-04 15:33:00,
2013-08-04 11:38:00,89.2,78.5,30.08,West,263,1.0,8.0,71,0.00,,,0.01,WeatherCatV1.15B25,2013-08-04 15:38:00,
2013-08-04 11:43:00,88.8,78.6,30.08,NW,314,2.0,6.0,72,0.00,,,0.01,WeatherCatV1.15B25,2013-08-04 15:43:00,
2013-08-04 11:48:00,88.6,77.5,30.08,West,261,5.0,10.0,70,0.00,,,0.01,WeatherCatV1.15B25,2013-08-04 15:48:00,
2013-08-04 11:53:00,88.0,77.4,30.09,West,271,6.0,12.0,71,0.00,,,0.01,WeatherCatV1.15B25,2013-08-04 15:53:00,
2013-08-04 11:58:00,86.6,76.9,30.09,NW,306,1.0,4.0,73,0.98,,,0.06,WeatherCatV1.15B25,2013-08-04 15:58:00,
2013-08-04 12:03:00,85.0,76.2,30.08,NW,310,1.0,2.0,75,0.35,,,0.11,WeatherCatV1.15B25,2013-08-04 16:03:00,
2013-08-04 12:08:00,83.5,75.9,30.08,NW,323,0.0,1.0,78,0.16,,,0.12,WeatherCatV1.15B25,2013-08-04 16:08:00,
2013-08-04 12:13:00,82.5,76.1,30.08,NW,323,0.0,0.0,81,0.07,,,0.12,WeatherCatV1.15B25,2013-08-04 16:13:00,
2013-08-04 12:18:00,82.4,77.8,30.08,NNW,336,0.0,0.0,86,0.04,,,0.12,WeatherCatV1.15B25,2013-08-04 16:18:00,
2013-08-04 12:23:00,83.2,79.3,30.08,NNW,336,0.0,0.0,88,0.00,,,0.12,WeatherCatV1.15B25,2013-08-04 16:23:00,
2013-08-04 12:28:00,84.3,80.0,30.07,NW,309,0.0,2.0,87,0.00,,,0.12,WeatherCatV1.15B25,2013-08-04 16:28:00,
2013-08-04 12:33:00,85.1,79.7,30.07,WSW,250,1.0,1.0,84,0.00,,,0.12,WeatherCatV1.15B25,2013-08-04 16:33:00,
2013-08-04 12:38:00,85.7,79.5,30.07,WSW,254,0.0,5.0,82,0.00,,,0.12,WeatherCatV1.15B25,2013-08-04 16:38:00,
2013-08-04 12:43:00,86.1,80.3,30.07,WSW,242,2.0,4.0,83,0.00,,,0.12,WeatherCatV1.15B25,2013-08-04 16:43:00,
2013-08-04 12:48:00,86.2,79.3,30.06,WNW,294,2.0,7.0,80,0.00,,,0.12,WeatherCatV1.15B25,2013-08-04 16:48:00,
2013-08-04 12:53:00,85.9,78.2,30.06,West,278,5.0,12.0,78,0.00,,,0.12,WeatherCatV1.15B25,2013-08-04 16:53:00,
2013-08-04 12:58:00,85.2,77.9,30.07,NW,313,2.0,7.0,79,0.00,,,0.12,WeatherCatV1.15B25,2013-08-04 16:58:00,
2013-08-04 13:03:00,84.5,77.2,30.06,WNW,298,2.0,5.0,79,0.00,,,0.12,WeatherCatV1.15B25,2013-08-04 17:03:00,
2013-08-04 13:08:00,84.3,78.2,30.06,WNW,286,0.0,1.0,82,0.00,,,0.12,WeatherCatV1.15B25,2013-08-04 17:08:00,
2013-08-04 13:13:00,84.3,77.8,30.06,West,271,0.0,1.0,81,0.00,,,0.12,WeatherCatV1.15B25,2013-08-04 17:13:00,
2013-08-04 13:18:00,84.7,78.9,30.06,West,273,0.0,2.0,83,0.00,,,0.12,WeatherCatV1.15B25,2013-08-04 17:18:00,
2013-08-04 13:23:00,85.1,79.7,30.06,WNW,295,7.0,8.0,84,0.00,,,0.12,WeatherCatV1.15B25,2013-08-04 17:23:00,
2013-08-04 13:28:00,85.8,79.3,30.06,West,281,4.0,6.0,81,0.00,,,0.12,WeatherCatV1.15B25,2013-08-04 17:28:00,
2013-08-04 13:33:00,86.4,79.1,30.06,NW,308,5.0,8.0,79,0.00,,,0.12,WeatherCatV1.15B25,2013-08-04 17:33:00,
2013-08-04 13:38:00,86.9,79.6,30.05,WNW,295,4.0,8.0,79,0.00,,,0.12,WeatherCatV1.15B25,2013-08-04 17:38:00,
2013-08-04 13:43:00,87.3,79.6,30.05,NW,322,6.0,10.0,78,0.00,,,0.12,WeatherCatV1.15B25,2013-08-04 17:43:00,
2013-08-04 13:48:00,87.8,80.1,30.05,West,278,7.0,9.0,78,0.00,,,0.12,WeatherCatV1.15B25,2013-08-04 17:48:00,
2013-08-04 13:53:00,88.3,80.1,30.05,ESE,123,4.0,10.0,77,0.00,,,0.12,WeatherCatV1.15B25,2013-08-04 17:53:00,
2013-08-04 13:58:00,88.8,80.2,30.04,WNW,289,6.0,9.0,76,0.00,,,0.12,WeatherCatV1.15B25,2013-08-04 17:58:00,
2013-08-04 14:03:00,89.1,81.3,30.04,WNW,288,6.0,7.0,78,0.00,,,0.12,WeatherCatV1.15B25,2013-08-04 18:03:00,
2013-08-04 14:08:00,89.5,80.5,30.04,WSW,246,5.0,6.0,75,0.00,,,0.12,WeatherCatV1.15B25,2013-08-04 18:08:00,
2013-08-04 14:13:00,89.9,80.5,30.03,SW,236,2.0,5.0,74,0.00,,,0.12,WeatherCatV1.15B25,2013-08-04 18:13:00,
2013-08-04 14:18:00,90.1,79.4,30.04,WSW,252,4.0,9.0,71,0.00,,,0.12,WeatherCatV1.15B25,2013-08-04 18:18:00,
2013-08-04 14:23:00,90.2,79.1,30.04,WSW,240,6.0,7.0,70,0.00,,,0.12,WeatherCatV1.15B25,2013-08-04 18:23:00,
2013-08-04 14:28:00,90.2,79.1,30.04,SW,225,0.0,9.0,70,0.00,,,0.12,WeatherCatV1.15B25,2013-08-04 18:28:00,
2013-08-04 14:33:00,90.5,79.8,30.03,WNW,288,5.0,8.0,71,0.00,,,0.12,WeatherCatV1.15B25,2013-08-04 18:33:00,
2013-08-04 14:38:00,90.8,80.1,30.03,SSW,205,0.0,6.0,71,0.00,,,0.12,WeatherCatV1.15B25,2013-08-04 18:38:00,
2013-08-04 14:43:00,91.1,80.3,30.03,West,272,5.0,8.0,71,0.00,,,0.12,WeatherCatV1.15B25,2013-08-04 18:43:00,
2013-08-04 14:48:00,91.2,79.6,30.02,WSW,254,4.0,5.0,69,0.00,,,0.12,WeatherCatV1.15B25,2013-08-04 18:48:00,
2013-08-04 14:53:00,91.0,78.5,30.02,West,267,1.0,7.0,67,0.00,,,0.12,WeatherCatV1.15B25,2013-08-04 18:53:00,
2013-08-04 14:58:00,90.8,80.1,30.02,SSW,198,3.0,10.0,71,0.00,,,0.12,WeatherCatV1.15B25,2013-08-04 18:58:00,
2013-08-04 15:03:00,90.6,79.9,30.02,NW,313,4.0,9.0,71,0.00,,,0.12,WeatherCatV1.15B25,2013-08-04 19:03:00,
2013-08-04 15:08:00,90.1,79.0,30.02,West,275,2.0,8.0,70,0.00,,,0.12,WeatherCatV1.15B25,2013-08-04 19:08:00,
2013-08-04 15:13:00,89.7,79.4,30.02,WNW,289,6.0,7.0,72,0.00,,,0.12,WeatherCatV1.15B25,2013-08-04 19:13:00,
2013-08-04 15:18:00,89.4,78.7,30.02,WNW,288,3.0,8.0,71,0.00,,,0.12,WeatherCatV1.15B25,2013-08-04 19:18:00,
2013-08-04 15:23:00,89.2,79.0,30.02,West,267,6.0,8.0,72,0.00,,,0.12,WeatherCatV1.15B25,2013-08-04 19:23:00,
2013-08-04 15:28:00,88.9,79.1,30.02,WNW,285,5.0,8.0,73,0.00,,,0.12,WeatherCatV1.15B25,2013-08-04 19:28:00,
2013-08-04 15:33:00,88.6,78.8,30.01,West,281,5.0,8.0,73,0.00,,,0.12,WeatherCatV1.15B25,2013-08-04 19:33:00,
2013-08-04 15:39:00,88.4,79.0,30.01,West,267,2.0,6.0,74,0.00,,,0.12,WeatherCatV1.15B25,2013-08-04 19:39:00,
2013-08-04 15:44:00,88.2,78.4,30.01,West,269,5.0,8.0,73,0.00,,,0.12,WeatherCatV1.15B25,2013-08-04 19:44:00,
2013-08-04 15:49:00,88.1,77.9,30.01,WNW,293,4.0,6.0,72,0.00,,,0.12,WeatherCatV1.15B25,2013-08-04 19:49:00,
2013-08-04 15:54:00,87.9,78.1,30.01,WNW,287,0.0,8.0,73,0.00,,,0.12,WeatherCatV1.15B25,2013-08-04 19:54:00,
2013-08-04 15:59:00,87.8,78.0,30.01,WSW,242,0.0,4.0,73,0.00,,,0.12,WeatherCatV1.15B25,2013-08-04 19:59:00,
2013-08-04 16:04:00,87.7,77.9,30.01,West,274,4.0,8.0,73,0.00,,,0.12,WeatherCatV1.15B25,2013-08-04 20:04:00,
2013-08-04 16:09:00,87.6,78.3,30.01,WNW,287,0.0,9.0,74,0.00,,,0.12,WeatherCatV1.15B25,2013-08-04 20:09:00,
2013-08-04 16:14:00,87.6,77.8,30.01,WNW,284,2.0,5.0,73,0.00,,,0.12,WeatherCatV1.15B25,2013-08-04 20:14:00,
2013-08-04 16:19:00,87.6,77.8,30.01,WNW,297,5.0,6.0,73,0.00,,,0.12,WeatherCatV1.15B25,2013-08-04 20:19:00,
2013-08-04 16:24:00,87.5,77.3,30.01,WNW,288,7.0,7.0,72,0.00,,,0.12,WeatherCatV1.15B25,2013-08-04 20:24:00,
2013-08-04 16:29:00,87.5,78.2,30.01,West,279,4.0,4.0,74,0.00,,,0.12,WeatherCatV1.15B25,2013-08-04 20:29:00,
2013-08-04 16:34:00,87.4,77.7,30.01,West,275,4.0,6.0,73,0.00,,,0.12,WeatherCatV1.15B25,2013-08-04 20:34:00,
2013-08-04 16:39:00,87.3,78.0,30.01,West,276,1.0,6.0,74,0.00,,,0.12,WeatherCatV1.15B25,2013-08-04 20:39:00,
2013-08-04 16:44:00,87.2,78.3,30.01,WNW,287,2.0,6.0,75,0.00,,,0.12,WeatherCatV1.15B25,2013-08-04 20:44:00,
2013-08-04 16:49:00,87.2,78.7,30.01,West,279,1.0,5.0,76,0.00,,,0.12,WeatherCatV1.15B25,2013-08-04 20:49:00,
2013-08-04 16:54:00,87.2,78.7,30.01,WSW,246,0.0,6.0,76,0.00,,,0.12,WeatherCatV1.15B25,2013-08-04 20:54:00,
2013-08-04 16:59:00,87.2,77.9,30.01,WSW,250,1.0,6.0,74,0.00,,,0.12,WeatherCatV1.15B25,2013-08-04 20:59:00,
2013-08-04 17:04:00,87.2,77.5,30.01,West,261,5.0,7.0,73,0.00,,,0.12,WeatherCatV1.15B25,2013-08-04 21:04:00,
2013-08-04 17:09:00,87.3,77.6,30.00,WNW,288,4.0,7.0,73,0.00,,,0.12,WeatherCatV1.15B25,2013-08-04 21:09:00,
2013-08-04 17:14:00,87.1,77.4,30.00,WNW,282,4.0,6.0,73,0.00,,,0.12,WeatherCatV1.15B25,2013-08-04 21:14:00,
2013-08-04 17:19:00,86.9,77.2,30.01,WNW,286,2.0,7.0,73,0.00,,,0.12,WeatherCatV1.15B25,2013-08-04 21:19:00,
2013-08-04 17:24:00,86.9,77.6,30.01,WNW,287,1.0,5.0,74,0.00,,,0.12,WeatherCatV1.15B25,2013-08-04 21:24:00,
2013-08-04 17:29:00,86.8,77.9,30.01,WSW,250,0.0,3.0,75,0.00,,,0.12,WeatherCatV1.15B25,2013-08-04 21:29:00,
2013-08-04 17:34:00,86.7,77.8,30.01,West,278,0.0,2.0,75,0.00,,,0.12,WeatherCatV1.15B25,2013-08-04 21:34:00,
2013-08-04 17:39:00,86.7,77.4,30.01,West,261,2.0,4.0,74,0.00,,,0.12,WeatherCatV1.15B25,2013-08-04 21:39:00,
2013-08-04 17:44:00,86.7,77.8,30.01,WNW,298,5.0,6.0,75,0.00,,,0.12,WeatherCatV1.15B25,2013-08-04 21:44:00,
2013-08-04 17:49:00,86.5,77.6,30.01,WNW,298,6.0,8.0,75,0.00,,,0.12,WeatherCatV1.15B25,2013-08-04 21:49:00,
2013-08-04 17:54:00,86.4,77.9,30.01,WSW,244,1.0,4.0,76,0.00,,,0.12,WeatherCatV1.15B25,2013-08-04 21:54:00,
2013-08-04 17:59:00,86.3,77.8,30.01,West,264,1.0,4.0,76,0.00,,,0.12,WeatherCatV1.15B25,2013-08-04 21:59:00,
2013-08-04 18:04:00,86.2,77.3,30.01,WNW,290,1.0,5.0,75,0.00,,,0.12,WeatherCatV1.15B25,2013-08-04 22:04:00,
2013-08-04 18:09:00,86.0,77.1,30.01,West,268,0.0,3.0,75,0.00,,,0.12,WeatherCatV1.15B25,2013-08-04 22:09:00,
2013-08-04 18:14:00,86.0,77.5,30.00,WSW,244,0.0,5.0,76,0.00,,,0.12,WeatherCatV1.15B25,2013-08-04 22:14:00,
2013-08-04 18:19:00,86.0,77.5,30.00,WNW,302,0.0,2.0,76,0.00,,,0.12,WeatherCatV1.15B25,2013-08-04 22:19:00,
2013-08-04 18:24:00,85.9,77.8,30.00,WSW,255,0.0,0.0,77,0.00,,,0.12,WeatherCatV1.15B25,2013-08-04 22:24:00,
2013-08-04 18:29:00,85.9,77.8,30.00,WNW,287,0.0,3.0,77,0.00,,,0.12,WeatherCatV1.15B25,2013-08-04 22:29:00,
2013-08-04 18:34:00,85.9,77.4,30.00,WSW,250,0.0,5.0,76,0.00,,,0.12,WeatherCatV1.15B25,2013-08-04 22:34:00,
2013-08-04 18:39:00,85.9,77.4,30.00,WSW,253,1.0,2.0,76,0.00,,,0.12,WeatherCatV1.15B25,2013-08-04 22:39:00,
2013-08-04 18:44:00,85.8,76.9,30.00,NW,306,0.0,3.0,75,0.00,,,0.12,WeatherCatV1.15B25,2013-08-04 22:44:00,
2013-08-04 18:49:00,85.7,76.8,30.00,WSW,250,2.0,5.0,75,0.00,,,0.12,WeatherCatV1.15B25,2013-08-04 22:49:00,
2013-08-04 18:54:00,85.6,77.1,30.00,WNW,287,0.0,1.0,76,0.00,,,0.12,WeatherCatV1.15B25,2013-08-04 22:54:00,
2013-08-04 18:59:00,85.5,77.0,30.01,WNW,302,5.0,5.0,76,0.00,,,0.12,WeatherCatV1.15B25,2013-08-04 22:59:00,
2013-08-04 19:04:00,85.5,77.0,30.00,West,281,0.0,0.0,76,0.00,,,0.12,WeatherCatV1.15B25,2013-08-04 23:04:00,
2013-08-04 19:09:00,85.4,76.9,30.00,West,278,0.0,1.0,76,0.00,,,0.12,WeatherCatV1.15B25,2013-08-04 23:09:00,
2013-08-04 19:14:00,85.4,76.9,30.00,West,274,1.0,4.0,76,0.00,,,0.12,WeatherCatV1.15B25,2013-08-04 23:14:00,
2013-08-04 19:19:00,85.4,76.9,30.00,West,274,0.0,2.0,76,0.00,,,0.12,WeatherCatV1.15B25,2013-08-04 23:19:00,
2013-08-04 19:24:00,85.4,76.9,30.00,WNW,282,0.0,4.0,76,0.00,,,0.12,WeatherCatV1.15B25,2013-08-04 23:24:00,
2013-08-04 19:29:00,85.4,76.9,30.00,West,281,2.0,2.0,76,0.00,,,0.12,WeatherCatV1.15B25,2013-08-04 23:29:00,
2013-08-04 19:34:00,85.3,76.8,30.01,WNW,285,7.0,7.0,76,0.00,,,0.12,WeatherCatV1.15B25,2013-08-04 23:34:00,
2013-08-04 19:39:00,85.2,77.1,30.00,WNW,294,2.0,6.0,77,0.00,,,0.12,WeatherCatV1.15B25,2013-08-04 23:39:00,
2013-08-04 19:44:00,84.8,76.4,30.00,WNW,294,0.0,4.0,76,0.00,,,0.12,WeatherCatV1.15B25,2013-08-04 23:44:00,
2013-08-04 19:49:00,84.6,76.2,30.00,WSW,254,0.0,2.0,76,0.00,,,0.12,WeatherCatV1.15B25,2013-08-04 23:49:00,
2013-08-04 19:54:00,84.5,76.5,30.00,WSW,257,0.0,0.0,77,0.00,,,0.12,WeatherCatV1.15B25,2013-08-04 23:54:00,
2013-08-04 19:59:00,84.4,76.4,30.00,WSW,257,0.0,0.0,77,0.00,,,0.12,WeatherCatV1.15B25,2013-08-04 23:59:00,
2013-08-04 20:04:00,84.4,76.4,30.00,WSW,257,0.0,0.0,77,0.00,,,0.12,WeatherCatV1.15B25,2013-08-05 00:04:00,
2013-08-04 20:09:00,84.3,76.7,30.01,WSW,257,0.0,0.0,78,0.00,,,0.12,WeatherCatV1.15B25,2013-08-05 00:09:00,
2013-08-04 20:14:00,84.3,77.1,30.01,WSW,257,0.0,0.0,79,0.00,,,0.12,WeatherCatV1.15B25,2013-08-05 00:14:00,
2013-08-04 20:19:00,84.3,77.1,30.01,WSW,257,0.0,0.0,79,0.00,,,0.12,WeatherCatV1.15B25,2013-08-05 00:19:00,
2013-08-04 20:24:00,84.2,77.3,30.01,WSW,257,0.0,0.0,80,0.00,,,0.12,WeatherCatV1.15B25,2013-08-05 00:24:00,
2013-08-04 20:29:00,84.1,76.9,30.01,WSW,257,0.0,0.0,79,0.00,,,0.12,WeatherCatV1.15B25,2013-08-05 00:29:00,
2013-08-04 20:34:00,84.0,76.8,30.01,WSW,257,0.0,0.0,79,0.00,,,0.12,WeatherCatV1.15B25,2013-08-05 00:34:00,
2013-08-04 20:39:00,83.9,77.0,30.02,WSW,257,0.0,0.0,80,0.00,,,0.12,WeatherCatV1.15B25,2013-08-05 00:39:00,
2013-08-04 20:44:00,83.8,76.6,30.02,WSW,257,0.0,0.0,79,0.00,,,0.12,WeatherCatV1.15B25,2013-08-05 00:44:00,
2013-08-04 20:49:00,83.7,76.9,30.02,WSW,254,0.0,0.0,80,0.00,,,0.12,WeatherCatV1.15B25,2013-08-05 00:49:00,
2013-08-04 20:54:00,83.5,76.7,30.02,WSW,254,0.0,0.0,80,0.00,,,0.12,WeatherCatV1.15B25,2013-08-05 00:54:00,
2013-08-04 20:59:00,83.2,76.7,30.02,WSW,254,0.0,0.0,81,0.00,,,0.12,WeatherCatV1.15B25,2013-08-05 00:59:00,
2013-08-04 21:04:00,83.0,76.5,30.02,WSW,254,0.0,0.0,81,0.00,,,0.12,WeatherCatV1.15B25,2013-08-05 01:04:00,
2013-08-04 21:09:00,82.8,76.7,30.02,WSW,254,0.0,0.0,82,0.00,,,0.12,WeatherCatV1.15B25,2013-08-05 01:09:00,
2013-08-04 21:14:00,82.5,76.4,30.02,WSW,254,0.0,0.0,82,0.00,,,0.12,WeatherCatV1.15B25,2013-08-05 01:14:00,
2013-08-04 21:19:00,82.4,76.3,30.02,WSW,254,0.0,0.0,82,0.00,,,0.12,WeatherCatV1.15B25,2013-08-05 01:19:00,
2013-08-04 21:24:00,82.2,76.5,30.03,WSW,254,0.0,0.0,83,0.00,,,0.12,WeatherCatV1.15B25,2013-08-05 01:24:00,
2013-08-04 21:29:00,82.0,76.3,30.02,WSW,254,0.0,0.0,83,0.00,,,0.12,WeatherCatV1.15B25,2013-08-05 01:29:00,
2013-08-04 21:34:00,81.8,76.5,30.02,WSW,254,0.0,0.0,84,0.00,,,0.12,WeatherCatV1.15B25,2013-08-05 01:34:00,
2013-08-04 21:39:00,81.6,76.3,30.02,WSW,254,0.0,0.0,84,0.00,,,0.12,WeatherCatV1.15B25,2013-08-05 01:39:00,
2013-08-04 21:44:00,81.5,76.2,30.02,WSW,254,0.0,0.0,84,0.00,,,0.12,WeatherCatV1.15B25,2013-08-05 01:44:00,
2013-08-04 21:49:00,81.3,76.0,30.02,WSW,254,0.0,0.0,84,0.00,,,0.12,WeatherCatV1.15B25,2013-08-05 01:49:00,
2013-08-04 21:54:00,81.2,75.9,30.02,WSW,254,0.0,0.0,84,0.00,,,0.12,WeatherCatV1.15B25,2013-08-05 01:54:00,
2013-08-04 21:55:00,81.2,75.9,30.03,WSW,254,0.0,0.0,84,0.00,,,0.12,WeatherCatV1.15B25,2013-08-05 01:55:00,
2013-08-04 22:00:00,81.0,76.0,30.03,WSW,254,0.0,0.0,85,0.00,,,0.12,WeatherCatV1.15B25,2013-08-05 02:00:00,
2013-08-04 22:05:00,80.9,75.9,30.02,WSW,254,0.0,0.0,85,0.00,,,0.12,WeatherCatV1.15B25,2013-08-05 02:05:00,
2013-08-04 22:10:00,80.8,75.9,30.03,WSW,254,0.0,0.0,85,0.00,,,0.12,WeatherCatV1.15B25,2013-08-05 02:10:00,
2013-08-04 22:15:00,80.6,75.7,30.02,WSW,254,0.0,0.0,85,0.00,,,0.12,WeatherCatV1.15B25,2013-08-05 02:15:00,
2013-08-04 22:20:00,80.5,75.6,30.02,WSW,254,0.0,0.0,85,0.00,,,0.12,WeatherCatV1.15B25,2013-08-05 02:20:00,
2013-08-04 22:25:00,80.4,75.5,30.02,WSW,254,0.0,0.0,85,0.00,,,0.12,WeatherCatV1.15B25,2013-08-05 02:25:00,
2013-08-04 22:30:00,80.3,75.4,30.03,WSW,254,0.0,0.0,85,0.00,,,0.12,WeatherCatV1.15B25,2013-08-05 02:30:00,
2013-08-04 22:35:00,80.2,75.3,30.03,WSW,254,0.0,0.0,85,0.00,,,0.12,WeatherCatV1.15B25,2013-08-05 02:35:00,
2013-08-04 22:40:00,80.2,75.3,30.03,WSW,254,0.0,0.0,85,0.00,,,0.12,WeatherCatV1.15B25,2013-08-05 02:40:00,
2013-08-04 22:45:00,80.1,75.2,30.03,WSW,254,0.0,0.0,85,0.00,,,0.12,WeatherCatV1.15B25,2013-08-05 02:45:00,
2013-08-04 22:50:00,80.0,75.4,30.03,WSW,254,0.0,0.0,86,0.00,,,0.12,WeatherCatV1.15B25,2013-08-05 02:50:00,
2013-08-04 22:55:00,80.0,75.4,30.03,WSW,257,0.0,0.0,86,0.00,,,0.12,WeatherCatV1.15B25,2013-08-05 02:55:00,
2013-08-04 23:00:00,80.0,75.4,30.03,WSW,257,0.0,0.0,86,0.00,,,0.12,WeatherCatV1.15B25,2013-08-05 03:00:00,
2013-08-04 23:05:00,80.0,75.4,30.03,WSW,257,0.0,0.0,86,0.00,,,0.12,WeatherCatV1.15B25,2013-08-05 03:05:00,
2013-08-04 23:10:00,80.1,75.5,30.03,WSW,257,0.0,0.0,86,0.00,,,0.12,WeatherCatV1.15B25,2013-08-05 03:10:00,
2013-08-04 23:15:00,80.1,75.5,30.03,WSW,257,0.0,0.0,86,0.00,,,0.12,WeatherCatV1.15B25,2013-08-05 03:15:00,
2013-08-04 23:20:00,80.1,75.2,30.03,WSW,257,0.0,0.0,85,0.00,,,0.12,WeatherCatV1.15B25,2013-08-05 03:20:00,
2013-08-04 23:25:00,80.2,75.6,30.03,WSW,257,0.0,0.0,86,0.00,,,0.12,WeatherCatV1.15B25,2013-08-05 03:25:00,
2013-08-04 23:30:00,80.2,75.3,30.03,WSW,257,0.0,0.0,85,0.00,,,0.12,WeatherCatV1.15B25,2013-08-05 03:30:00,
2013-08-04 23:35:00,80.2,75.3,30.03,WSW,257,0.0,0.0,85,0.00,,,0.12,WeatherCatV1.15B25,2013-08-05 03:35:00,
2013-08-04 23:40:00,80.2,75.3,30.03,WSW,257,0.0,0.0,85,0.00,,,0.12,WeatherCatV1.15B25,2013-08-05 03:40:00,
2013-08-04 23:45:00,80.2,75.3,30.03,West,266,0.0,1.0,85,0.00,,,0.12,WeatherCatV1.15B25,2013-08-05 03:45:00,
2013-08-04 23:50:00,80.2,75.3,30.03,West,266,0.0,0.0,85,0.00,,,0.12,WeatherCatV1.15B25,2013-08-05 03:50:00,
2013-08-04 23:55:00,80.2,74.9,30.03,West,266,0.0,0.0,84,0.00,,,0.12,WeatherCatV1.15B25,2013-08-05 03:55:00,